Lewisburg, WV

1:10 AM EDT on October 20, 2017 (GMT -0400)
Greenbrier Valley

Weather History for KLWB - November, 2012

Change the Weather History Date:

Friday, November 9, 2012

  Actual Average Record
Temperature  
Mean Temperature 38 °F -  
Max Temperature 51 °F 56 °F 73 °F (1975)
Min Temperature 24 °F 32 °F 17 °F (1991)
Degree Days  
Heating Degree Days 28    
Moisture  
Dew Point 23 °F    
Average Humidity 61    
Maximum Humidity 86    
Minimum Humidity 30    
Precipitation  
Precipitation 0.00 in - - ()
Sea Level Pressure  
Sea Level Pressure 30.21 in    
Wind  
Wind Speed 2 mph (SW)    
Max Wind Speed 9 mph    
Max Gust Speed -    
Visibility 10 miles    
Events      
Averages and records for this station are not official NWS values.
T = Trace of Precipitation, MM = Missing Value Source: NWS Daily Summary

Daily Weather History Graph

Daily Weather History Graph

Search for Another Location

Airport or City:

Trip Planner

Search our weather history database for the weather conditions in past years. The results will help you decide how hot, cold, wet, or windy it might be!

Date:

Astronomy

Nov. 09, 2012 Rise Set
Actual Time 6:56 AM EST 5:14 PM EST
Civil Twilight 6:28 AM EST 5:42 PM EST
Nautical Twilight 5:56 AM EST 6:13 PM EST
Astronomical Twilight 5:25 AM EST 6:44 PM EST
Moon 1:58 AM EST (11/9) 2:22 PM EST (11/9)
Length of Visible Light 11h 13m
Length of Day
10h 18m
Waning Crescent, 23% of the Moon is Illuminated
Nov 9
Waning Crescent
Nov 13
New
Nov 20
First Quarter
Nov 28
Full
Dec 6
Last Quarter

Hourly Weather History & Observations

Time (EST) Temp. Windchill Dew Point Humidity Pressure Visibility Wind Dir Wind Speed Gust Speed Precip Events Conditions
12:15 AM 26.6 °F - 19.4 °F 74% 30.15 in 10.0 mi Calm Calm - N/A   Clear
12:35 AM 26.6 °F - 19.4 °F 74% 30.15 in 10.0 mi Calm Calm - N/A   Clear
12:55 AM 26.6 °F - 21.2 °F 80% 30.15 in 10.0 mi Calm Calm - N/A   Clear
1:15 AM 24.8 °F - 19.4 °F 80% 30.15 in 10.0 mi Calm Calm - N/A   Clear
1:35 AM 26.6 °F - 21.2 °F 80% 30.15 in 10.0 mi Calm Calm - N/A   Clear
1:55 AM 24.8 °F - 19.4 °F 80% 30.15 in 10.0 mi Calm Calm - N/A   Clear
2:15 AM 24.8 °F 20.5 °F 21.2 °F 86% 30.15 in 10.0 mi South 3.5 mph - N/A   Clear
2:35 AM 26.6 °F 22.6 °F 21.2 °F 80% 30.15 in 10.0 mi SSE 3.5 mph - N/A   Clear
2:55 AM 26.6 °F 22.6 °F 21.2 °F 80% 30.15 in 10.0 mi SSE 3.5 mph - N/A   Clear
3:15 AM 26.6 °F - 21.2 °F 80% 30.16 in 10.0 mi Calm Calm - N/A   Clear
3:35 AM 26.6 °F - 21.2 °F 80% 30.16 in 10.0 mi Calm Calm - N/A   Clear
3:55 AM 26.6 °F - 21.2 °F 80% 30.17 in 10.0 mi Calm Calm - N/A   Clear
4:15 AM 28.4 °F - 21.2 °F 74% 30.17 in 10.0 mi Calm Calm - N/A   Clear
4:35 AM 28.4 °F 23.3 °F 21.2 °F 74% 30.17 in 10.0 mi WSW 4.6 mph - N/A   Clear
4:55 AM 30.2 °F 24.3 °F 23.0 °F 75% 30.18 in 10.0 mi WSW 5.8 mph - N/A   Clear
5:15 AM 30.2 °F 25.4 °F 23.0 °F 75% 30.19 in 10.0 mi WSW 4.6 mph - N/A   Clear
5:35 AM 32.0 °F 26.4 °F 23.0 °F 69% 30.19 in 10.0 mi WSW 5.8 mph - N/A   Clear
5:55 AM 30.2 °F 26.7 °F 23.0 °F 75% 30.20 in 10.0 mi West 3.5 mph - N/A   Clear
6:15 AM 28.4 °F 24.6 °F 21.2 °F 74% 30.20 in 10.0 mi SW 3.5 mph - N/A   Clear
6:35 AM 28.4 °F 23.3 °F 23.0 °F 80% 30.21 in 10.0 mi WSW 4.6 mph - N/A   Clear
6:55 AM 28.4 °F - 21.2 °F 74% 30.22 in 10.0 mi Calm Calm - N/A   Clear
7:15 AM 28.4 °F 23.3 °F 23.0 °F 80% 30.22 in 10.0 mi South 4.6 mph - N/A   Clear
7:35 AM 26.6 °F 22.6 °F 23.0 °F 86% 30.23 in 10.0 mi South 3.5 mph - N/A   Clear
7:55 AM 30.2 °F 24.3 °F 23.0 °F 75% 30.23 in 10.0 mi SW 5.8 mph - N/A   Clear
8:15 AM 30.2 °F 26.7 °F 24.8 °F 80% 30.23 in 10.0 mi South 3.5 mph - N/A   Clear
8:35 AM 32.0 °F 28.7 °F 26.6 °F 80% 30.24 in 10.0 mi SSW 3.5 mph - N/A   Clear
8:55 AM 33.8 °F 27.7 °F 26.6 °F 75% 30.25 in 10.0 mi SW 6.9 mph - N/A   Clear
9:15 AM 35.6 °F 31.7 °F 26.6 °F 70% 30.24 in 10.0 mi WSW 4.6 mph - N/A   Clear
10:35 AM 41.0 °F 38.0 °F 26.6 °F 57% 30.26 in 10.0 mi West 4.6 mph - N/A   Clear
10:55 AM 42.8 °F 39.3 °F 28.4 °F 57% 30.26 in 10.0 mi WSW 5.8 mph - N/A   Clear
11:15 AM 44.6 °F 43.1 °F 28.4 °F 53% 30.25 in 10.0 mi WSW 3.5 mph - N/A   Clear
11:35 AM 44.6 °F 43.1 °F 28.4 °F 53% 30.25 in 10.0 mi SSW 3.5 mph - N/A   Clear
11:55 AM 46.4 °F 41.9 °F 28.4 °F 50% 30.24 in 10.0 mi SSW 9.2 mph - N/A   Clear
12:15 PM 46.4 °F 42.4 °F 28.4 °F 50% 30.23 in 10.0 mi WSW 8.1 mph - N/A   Clear
12:35 PM 50.0 °F - 26.6 °F 40% 30.22 in 10.0 mi SW 4.6 mph - N/A   Clear
12:55 PM 50.0 °F - 24.8 °F 37% 30.22 in 10.0 mi SW 6.9 mph - N/A   Clear
1:15 PM 50.0 °F - 23.0 °F 35% 30.21 in 10.0 mi West 6.9 mph - N/A   Clear
1:35 PM 50.0 °F - 23.0 °F 35% 30.21 in 10.0 mi West 5.8 mph - N/A   Clear
1:55 PM 51.8 °F - 23.0 °F 33% 30.21 in 10.0 mi WSW 6.9 mph - N/A   Clear
2:15 PM 51.8 °F - 26.6 °F 38% 30.20 in 10.0 mi SW 6.9 mph - N/A   Clear
2:35 PM 51.8 °F - 23.0 °F 33% 30.20 in 10.0 mi WSW 5.8 mph - N/A   Clear
2:55 PM 51.8 °F - 24.8 °F 35% 30.20 in 10.0 mi SW 5.8 mph - N/A   Clear
3:15 PM 51.8 °F - 24.8 °F 35% 30.20 in 10.0 mi SW 5.8 mph - N/A   Clear
3:35 PM 51.8 °F - 23.0 °F 33% 30.20 in 10.0 mi SW 6.9 mph - N/A   Clear
3:55 PM 51.8 °F - 23.0 °F 33% 30.20 in 10.0 mi SW 5.8 mph - N/A   Clear
4:15 PM 51.8 °F - 23.0 °F 33% 30.20 in 10.0 mi WSW 5.8 mph - N/A   Clear
4:35 PM 51.8 °F - 21.2 °F 30% 30.20 in 10.0 mi WSW 6.9 mph - N/A   Clear
4:55 PM 50.0 °F - 21.2 °F 32% 30.20 in 10.0 mi WSW 3.5 mph - N/A   Clear
5:15 PM 50.0 °F - 21.2 °F 32% 30.21 in 10.0 mi Calm Calm - N/A   Clear
5:35 PM 48.2 °F - 21.2 °F 34% 30.21 in 10.0 mi Calm Calm - N/A   Clear
5:55 PM 46.4 °F - 21.2 °F 37% 30.22 in 10.0 mi Calm Calm - N/A   Clear
6:15 PM 42.8 °F - 23.0 °F 46% 30.22 in 10.0 mi Calm Calm - N/A   Clear
6:35 PM 42.8 °F - 23.0 °F 46% 30.22 in 10.0 mi Calm Calm - N/A   Clear
6:55 PM 42.8 °F - 23.0 °F 46% 30.22 in 10.0 mi Calm Calm - N/A   Clear
7:15 PM 41.0 °F - 23.0 °F 49% 30.22 in 10.0 mi Calm Calm - N/A   Clear
7:35 PM 35.6 °F - 23.0 °F 60% 30.23 in 10.0 mi Calm Calm - N/A   Clear
7:55 PM 35.6 °F - 23.0 °F 60% 30.23 in 10.0 mi Calm Calm - N/A   Clear
8:15 PM 35.6 °F - 23.0 °F 60% 30.23 in 10.0 mi Calm Calm - N/A   Clear
8:35 PM 35.6 °F - 23.0 °F 60% 30.23 in 10.0 mi Calm Calm - N/A   Clear
8:55 PM 35.6 °F - 23.0 °F 60% 30.24 in 10.0 mi Calm Calm - N/A   Clear
9:15 PM 35.6 °F - 23.0 °F 60% 30.25 in 10.0 mi Calm Calm - N/A   Clear
9:35 PM 35.6 °F - 23.0 °F 60% 30.25 in 10.0 mi Calm Calm - N/A   Clear
10:15 PM 32.0 °F - 23.0 °F 69% 30.26 in 10.0 mi Calm Calm - N/A   Clear
10:35 PM 32.0 °F - 23.0 °F 69% 30.25 in 10.0 mi Calm Calm - N/A   Clear
10:55 PM 32.0 °F - 23.0 °F 69% 30.25 in 10.0 mi Calm Calm - N/A   Clear
11:15 PM 30.2 °F - 23.0 °F 75% 30.25 in 10.0 mi Calm Calm - N/A   Clear
11:35 PM 30.2 °F 26.7 °F 23.0 °F 75% 30.25 in 10.0 mi NNE 3.5 mph - N/A   Clear
11:55 PM 30.2 °F 26.7 °F 23.0 °F 75% 30.25 in 10.0 mi NNE 3.5 mph - N/A   Clear